Regional Weather Roundup
Issued by NWS Spokane, WA

Home | Current Version | Previous Version | Text Only | Print | Product List | Glossary On
Versions: 1 2 3 4 5 6 7 8 9 10 11 12 13 14 15 16 17 18 19 20 21 22 23 24 25 26 27 28 29 30 31 32 33 34 35 36 37 38 39 40 41 42 43 44 45 46 47 48 49 50
000
NZUS01 KOTX 282010
RWROTX
EASTERN WASHINGTON/NORTHERN IDAHO ROUNDUP
NATIONAL WEATHER SERVICE, SPOKANE WA
100 PM PDT TUE APR 28 2015

Note: "fair" indicated few or no clouds below 12,000 feet with no
significant weather and/or obstructions to visibility.

...NORTHEAST WASHINGTON AND NORTHERN IDAHO PANHANDLE...

CITY           SKY/WX    TMP DP  RH WIND       PRES   REMARKS
SPOKANE INTL   MOSUNNY   74  37  26 VRB3      29.98F
SPOKANE DOWNTO SUNNY     76  40  27 VRB6      29.98F
COEUR D ALENE  SUNNY     72  36  26 S10       30.00F
DEER PARK      SUNNY     71  39  31 SW6       29.99F
SANDPOINT      SUNNY     70  36  28 E5        30.00F
BONNERS FERRY  FAIR      68  37  32 CALM      30.00F

...SOUTHEAST WASHINGTON AND SOUTHERN IDAHO PANHANDLE...

CITY           SKY/WX    TMP DP  RH WIND       PRES   REMARKS
WALLA WALLA    SUNNY     77  44  30 VRB6      29.92F
PULLMAN/MOSCOW SUNNY     74  35  24 S6        30.01F
LEWISTON       SUNNY     78  41  26 E9        29.94F
LOWELL           N/A     76  39  26 CALM      29.97F

...COLUMBIA BASIN...

CITY           SKY/WX    TMP DP  RH WIND       PRES   REMARKS
EPHRATA        SUNNY     74  35  24 S8        29.94F
MOSES LAKE     SUNNY     74  35  24 SW6       29.95F
TRI CITIES     SUNNY     75  46  35 N5        29.93F
HERMISTON      SUNNY     75  37  25 W6G17     29.93F
PENDLETON      SUNNY     75  43  31 NW16      29.93F

...EAST SLOPES CASCADES...

CITY           SKY/WX    TMP DP  RH WIND       PRES   REMARKS
THE DALLES     SUNNY     72  47  40 NW24G32   29.98F
YAKIMA         SUNNY     78  38  23 S6        29.93F
ELLENSBURG     SUNNY     75  36  24 VRB5      29.95F
WENATCHEE      SUNNY     74  34  23 E7        29.93F
OMAK           SUNNY     74  39  28 SW13      29.93F

...SOUTHERN BRITISH COLUMBIA...

CITY           SKY/WX    TMP DP  RH WIND       PRES   REMARKS
CASTLEGAR      PTSUNNY   72  41  33 CALM      29.94F
CRANBROOK      PTSUNNY   70  36  28 SE8       30.01F

...WESTERN MONTANA...

CITY           SKY/WX    TMP DP  RH WIND       PRES   REMARKS
MISSOULA       SUNNY     66  33  29 VRB5      30.07F

...NEIGHBORING CITIES...

CITY           SKY/WX    TMP DP  RH WIND       PRES   REMARKS
SEATTLE        CLOUDY    58  47  66 VRB3      30.11S
CALGARY        PTSUNNY   77  28  16 S12G18    29.87F



USA.gov is the U.S. government's official web portal to all federal, state and local government web resources and services.